This is the latest recevied weather packets stored in our database for station/object KF7IOR. If no packets are shown the sender has not sent any weather packets the latest 10 day(s).
| Time | Temp. | Humidity | Pressure | Rain* | Wind** | Luminosity | Snow |
|---|---|---|---|---|---|---|---|
| 1777655140 | 16.67° C | 66% | 1016.5 hPa | 0 mm | - | 443 W/m² | - |
| 1777651535 | 15.56° C | 70% | 1017 hPa | 0 mm | - | 346 W/m² | - |
| 1777648835 | 13.89° C | 73% | 1016.9 hPa | 0 mm | - | 248 W/m² | - |
| 1777648549 | 13.89° C | 75% | 1016.9 hPa | 0 mm | - | 176 W/m² | - |
| 1777647336 | 13.33° C | 78% | 1016.7 hPa | 0 mm | - | 146 W/m² | - |
| 1777645845 | 12.78° C | 80% | 1016.4 hPa | 0 mm | - | 130 W/m² | - |
| 1777644044 | 11.11° C | 86% | 1015.9 hPa | 0 mm | - | 49 W/m² | - |
| 1777642248 | 10.56° C | 86% | 1015.8 hPa | 0 mm | - | 28 W/m² | - |
| 1777641347 | 10° C | 87% | 1015.6 hPa | 0 mm | - | 14 W/m² | - |
| 1777639236 | 10° C | 87% | 1015.3 hPa | 0 mm | - | 0 W/m² | - |
| 1777638337 | 10° C | 86% | 1015.3 hPa | 0 mm | - | 0 W/m² | - |
| 1777637139 | 10.56° C | 85% | 1015.4 hPa | 0 mm | - | 0 W/m² | - |
| 1777635046 | 11.11° C | 84% | 1015.3 hPa | 0 mm | - | 0 W/m² | - |
| 1777634435 | 11.11° C | 83% | 1015.4 hPa | 0 mm | - | 0 W/m² | - |
| 1777632936 | 12.22° C | 81% | 1015.3 hPa | 0 mm | - | 0 W/m² | - |
| 1777631735 | 13.33° C | 77% | 1015.1 hPa | 0 mm | - | 0 W/m² | - |
| 1777631445 | 13.33° C | 77% | 1015 hPa | 0 mm | - | 0 W/m² | - |
| 1777631138 | 13.33° C | 78% | 1014.9 hPa | 0 mm | - | 0 W/m² | - |
| 1777630238 | 12.22° C | 82% | 1014.8 hPa | 0 mm | - | 0 W/m² | - |
| 1777629336 | 11.11° C | 83% | 1015 hPa | 0 mm | - | 0 W/m² | - |
| 1777628766 | 11.67° C | 83% | 1014.9 hPa | 0 mm | - | 0 W/m² | - |
| 1777627535 | 11.67° C | 81% | 1014.8 hPa | 0 mm | - | 0 W/m² | - |
| 1777627237 | 11.67° C | 81% | 1014.7 hPa | 0 mm | - | 0 W/m² | - |
| 1777626945 | 12.22° C | 81% | 1014.7 hPa | 0 mm | - | 0 W/m² | - |
| 1777626335 | 12.22° C | 80% | 1014.7 hPa | 0 mm | - | 0 W/m² | - |
* Rain latest hour (hover to see other rain measurements)
** Current wind speed in m/s (hover to see current wind gust speed)